QPF
0.01 0.02 0.02 0.01 0.02 0.01 0.01 0.01 0.00 0.00 0.01 0.01 0.02 0.01 0.01 0.01 0.01 0.02 0.02 0.03 0.04 0.03 0.04 0.04 0.04 0.04 0.02 0.02 0.02 0.01 0.01 0.02 0.02 0.02 0.01 0.03 0.03 0.03 0.03 0.04 0.03 0.03 0.02
0.01 0.01 0.02 0.01 0.02 0.01 0.01 0.01 0.01 0.00 0.00 0.01 0.01 0.02 0.03 0.02 0.02 0.02 0.01 0.02 0.02 0.02 0.03 0.04 0.04 0.03 0.02 0.01 0.01 0.01 0.02 0.02 0.02 0.02 0.02 0.03 0.03 0.03 0.02 0.03 0.03 0.03 0.03
0.02 0.03 0.03 0.02 0.02 0.01 0.01 0.01 0.01 0.01 0.00 0.01 0.00 0.01 0.02 0.02 0.02 0.02 0.02 0.02 0.01 0.02 0.03 0.02 0.03 0.03 0.03 0.02 0.01 0.02 0.02 0.02 0.03 0.02 0.02 0.03 0.04 0.04 0.04 0.03 0.04 0.05 0.05
0.04 0.06 0.05 0.03 0.02 0.02 0.02 0.02 0.01 0.01 0.01 0.01 0.01 0.00 0.00 0.01 0.01 0.02 0.02 0.02 0.02 0.02 0.02 0.01 0.02 0.02 0.03 0.02 0.02 0.02 0.02 0.02 0.04 0.04 0.03 0.04 0.04 0.03 0.04 0.03 0.02 0.04 0.04
0.04 0.04 0.04 0.03 0.03 0.02 0.02 0.02 0.02 0.01 0.01 0.01 0.01 0.01 0.01 0.01 0.02 0.03 0.02 0.02 0.02 0.01 0.01 0.01 0.01 0.01 0.01 0.01 0.01 0.03 0.03 0.03 0.04 0.04 0.03 0.03 0.03 0.02 0.02 0.02 0.02 0.02 0.04
0.03 0.02 0.02 0.02 0.05 0.04 0.04 0.03 0.03 0.03 0.02 0.01 0.02 0.02 0.02 0.03 0.03 0.02 0.01 0.01 0.01 0.01 0.02 0.02 0.02 0.01 0.01 0.02 0.02 0.04 0.04 0.04 0.04 0.03 0.02 0.02 0.02 0.02 0.02 0.01 0.01 0.01 0.02
0.02 0.02 0.02 0.04 0.09 0.10 0.09 0.07 0.04 0.03 0.02 0.02 0.03 0.03 0.03 0.03 0.03 0.03 0.02 0.02 0.02 0.01 0.02 0.04 0.03 0.03 0.03 0.03 0.03 0.03 0.05 0.05 0.04 0.04 0.03 0.03 0.03 0.03 0.03 0.02 0.01 0.01 0.01
0.03 0.03 0.05 0.08 0.13 0.15 0.15 0.06 0.03 0.03 0.04 0.04 0.04 0.04 0.05 0.04 0.03 0.02 0.02 0.03 0.03 0.02 0.02 0.04 0.04 0.04 0.04 0.03 0.04 0.03 0.03 0.03 0.04 0.05 0.05 0.05 0.04 0.03 0.03 0.03 0.02 0.01 0.01
0.02 0.03 0.05 0.06 0.07 0.07 0.06 0.04 0.02 0.02 0.04 0.04 0.05 0.05 0.05 0.05 0.04 0.04 0.04 0.03 0.03 0.02 0.03 0.04 0.04 0.04 0.04 0.04 0.04 0.02 0.01 0.02 0.03 0.04 0.04 0.04 0.03 0.02 0.02 0.02 0.02 0.02 0.01
0.01 0.01 0.01 0.02 0.03 0.04 0.03 0.03 0.03 0.02 0.03 0.04 0.05 0.07 0.06 0.05 0.06 0.06 0.06 0.05 0.04 0.03 0.03 0.05 0.03 0.02 0.02 0.03 0.03 0.02 0.02 0.02 0.02 0.01 0.01 0.02 0.02 0.02 0.02 0.01 0.01 0.02 0.02
0.01 0.01 0.01 0.02 0.02 0.03 0.03 0.03 0.02 0.02 0.02 0.04 0.06 0.09 0.10 0.07 0.05 0.04 0.05 0.05 0.06 0.06 0.05 0.05 0.03 0.01 0.01 0.02 0.02 0.01 0.02 0.01 0.01 0.01 0.01 0.01 0.01 0.01 0.01 0.01 0.01 0.01 0.03
0.02 0.02 0.02 0.03 0.02 0.02 0.02 0.02 0.02 0.03 0.04 0.08 0.08 0.08 0.07 0.05 0.04 0.04 0.04 0.05 0.07 0.07 0.07 0.07 0.05 0.03 0.02 0.02 0.01 0.01 0.01 0.01 0.01 0.01 0.01 0.00 0.00 0.01 0.01 0.01 0.01 0.01 0.02
0.02 0.03 0.03 0.03 0.03 0.03 0.02 0.02 0.03 0.04 0.04 0.06 0.09 0.12 0.05 0.03 0.04 0.05 0.04 0.03 0.04 0.04 0.04 0.04 0.04 0.03 0.02 0.03 0.03 0.02 0.01 0.01 0.01 0.01 0.01 0.00 0.00 0.00 0.01 0.01 0.01 0.01 0.02
0.02 0.03 0.04 0.03 0.03 0.04 0.03 0.03 0.04 0.06 0.06 0.08 0.07 0.06 0.04 0.03 0.03 0.03 0.03 0.03 0.03 0.03 0.02 0.02 0.02 0.01 0.01 0.02 0.02 0.02 0.02 0.01 0.01 0.01 0.01 0.01 0.00 0.00 0.01 0.00 0.00 0.01 0.02
0.02 0.03 0.03 0.02 0.03 0.03 0.03 0.05 0.06 0.08 0.10 0.11 0.10 0.08 0.06 0.05 0.04 0.04 0.04 0.04 0.03 0.03 0.02 0.02 0.01 0.01 0.01 0.01 0.02 0.02 0.02 0.02 0.02 0.02 0.02 0.01 0.01 0.01 0.01 0.01 0.00 0.02 0.02
0.01 0.01 0.01 0.01 0.01 0.01 0.02 0.04 0.08 0.12 0.11 0.08 0.07 0.06 0.06 0.06 0.05 0.05 0.05 0.05 0.04 0.04 0.03 0.03 0.02 0.01 0.01 0.02 0.02 0.03 0.02 0.03 0.02 0.02 0.02 0.02 0.02 0.02 0.02 0.01 0.01 0.02 0.01
0.01 0.01 0.01 0.01 0.01 0.01 0.02 0.03 0.08 0.09 0.06 0.05 0.04 0.04 0.04 0.06 0.05 0.05 0.05 0.05 0.05 0.06 0.06 0.05 0.04 0.03 0.02 0.02 0.02 0.03 0.03 0.03 0.04 0.03 0.04 0.03 0.02 0.02 0.02 0.02 0.01 0.01 0.01
0.02 0.02 0.01 0.01 0.01 0.02 0.02 0.04 0.05 0.04 0.04 0.03 0.03 0.02 0.02 0.03 0.03 0.04 0.05 0.06 0.07 0.07 0.07 0.06 0.06 0.05 0.04 0.04 0.05 0.04 0.04 0.03 0.04 0.05 0.06 0.05 0.05 0.05 0.05 0.04 0.03 0.02 0.02
0.01 0.01 0.01 0.01 0.01 0.01 0.02 0.03 0.03 0.04 0.03 0.03 0.02 0.02 0.03 0.03 0.03 0.03 0.03 0.04 0.05 0.05 0.06 0.05 0.05 0.05 0.05 0.06 0.05 0.04 0.04 0.04 0.05 0.08 0.09 0.08 0.06 0.06 0.06 0.05 0.04 0.04 0.04
0.01 0.01 0.01 0.01 0.01 0.01 0.02 0.02 0.02 0.01 0.02 0.02 0.02 0.02 0.03 0.03 0.04 0.05 0.05 0.04 0.04 0.04 0.05 0.04 0.04 0.04 0.05 0.06 0.05 0.04 0.04 0.05 0.05 0.06 0.08 0.07 0.05 0.05 0.05 0.05 0.04 0.05 0.05
0.01 0.01 0.01 0.01 0.01 0.01 0.01 0.01 0.01 0.01 0.01 0.02 0.03 0.03 0.03 0.03 0.03 0.03 0.03 0.02 0.03 0.04 0.04 0.02 0.02 0.03 0.03 0.05 0.07 0.07 0.07 0.07 0.08 0.09 0.10 0.08 0.07 0.07 0.07 0.07 0.06 0.05 0.05
0.00 0.00 0.00 0.01 0.01 0.01 0.02 0.01 0.01 0.02 0.02 0.03 0.03 0.04 0.05 0.04 0.06 0.05 0.03 0.02 0.01 0.02 0.02 0.01 0.01 0.02 0.03 0.04 0.06 0.09 0.10 0.12 0.13 0.12 0.10 0.07 0.06 0.06 0.05 0.04 0.04 0.04 0.04
0.01 0.01 0.01 0.01 0.01 0.01 0.01 0.01 0.01 0.02 0.02 0.02 0.02 0.04 0.05 0.06 0.06 0.06 0.05 0.03 0.03 0.02 0.01 0.01 0.01 0.01 0.02 0.03 0.04 0.05 0.05 0.05 0.05 0.05 0.05 0.05 0.05 0.04 0.03 0.03 0.02 0.02 0.02
0.05 0.03 0.02 0.01 0.01 0.01 0.01 0.01 0.01 0.01 0.02 0.02 0.02 0.03 0.04 0.06 0.07 0.07 0.06 0.07 0.06 0.04 0.03 0.02 0.02 0.02 0.02 0.02 0.02 0.02 0.03 0.05 0.05 0.06 0.08 0.06 0.04 0.03 0.03 0.02 0.02 0.02 0.02
0.07 0.05 0.03 0.02 0.01 0.01 0.01 0.01 0.01 0.02 0.01 0.02 0.03 0.04 0.06 0.07 0.07 0.07 0.07 0.08 0.08 0.07 0.05 0.04 0.03 0.03 0.02 0.01 0.01 0.01 0.02 0.03 0.05 0.07 0.08 0.07 0.04 0.04 0.04 0.03 0.03 0.03 0.02
0.04 0.03 0.02 0.02 0.02 0.02 0.02 0.02 0.02 0.03 0.03 0.03 0.03 0.04 0.06 0.09 0.08 0.08 0.07 0.07 0.05 0.05 0.05 0.05 0.04 0.02 0.01 0.01 0.01 0.01 0.02 0.02 0.04 0.05 0.06 0.07 0.05 0.05 0.04 0.04 0.04 0.04 0.03
MSLP
1010.59 1010.48 1010.35 1010.21 1010.05 1009.94 1009.90 1009.97 1010.19 1010.55 1011.01 1011.53 1012.04 1012.49 1012.85 1013.09 1013.24 1013.34 1013.41 1013.51 1013.66 1013.86 1014.11 1014.39 1014.66 1014.91 1015.12 1015.31 1015.51 1015.74 1016.06 1016.47 1016.98 1017.57 1018.20 1018.81 1019.36 1019.80 1020.09 1020.24 1020.26 1020.19 1020.06
1010.00 1009.97 1009.91 1009.80 1009.65 1009.52 1009.45 1009.49 1009.69 1010.05 1010.54 1011.12 1011.72 1012.27 1012.73 1013.05 1013.27 1013.39 1013.47 1013.57 1013.70 1013.89 1014.13 1014.41 1014.69 1014.95 1015.18 1015.37 1015.57 1015.79 1016.09 1016.50 1017.01 1017.63 1018.30 1018.98 1019.61 1020.13 1020.51 1020.74 1020.82 1020.78 1020.66
1009.21 1009.28 1009.32 1009.30 1009.21 1009.11 1009.04 1009.07 1009.27 1009.63 1010.15 1010.79 1011.46 1012.10 1012.64 1013.05 1013.32 1013.48 1013.59 1013.67 1013.79 1013.96 1014.19 1014.45 1014.72 1014.98 1015.20 1015.38 1015.56 1015.76 1016.04 1016.42 1016.92 1017.53 1018.23 1018.96 1019.65 1020.26 1020.73 1021.04 1021.19 1021.21 1021.13
1008.22 1008.41 1008.59 1008.68 1008.69 1008.65 1008.62 1008.67 1008.87 1009.24 1009.79 1010.46 1011.19 1011.90 1012.53 1013.02 1013.35 1013.57 1013.70 1013.80 1013.91 1014.07 1014.28 1014.54 1014.80 1015.04 1015.25 1015.42 1015.57 1015.74 1015.97 1016.31 1016.77 1017.35 1018.04 1018.78 1019.51 1020.17 1020.71 1021.10 1021.33 1021.42 1021.39
1007.11 1007.42 1007.73 1007.95 1008.07 1008.12 1008.14 1008.21 1008.42 1008.80 1009.35 1010.05 1010.83 1011.60 1012.30 1012.87 1013.28 1013.57 1013.75 1013.89 1014.03 1014.20 1014.42 1014.67 1014.94 1015.18 1015.38 1015.54 1015.66 1015.79 1015.97 1016.24 1016.63 1017.14 1017.77 1018.47 1019.19 1019.87 1020.45 1020.90 1021.21 1021.38 1021.42
1005.99 1006.39 1006.80 1007.14 1007.36 1007.47 1007.54 1007.64 1007.85 1008.22 1008.77 1009.48 1010.28 1011.10 1011.87 1012.52 1013.03 1013.40 1013.67 1013.87 1014.07 1014.30 1014.55 1014.84 1015.13 1015.40 1015.61 1015.77 1015.87 1015.96 1016.07 1016.26 1016.55 1016.97 1017.50 1018.11 1018.77 1019.41 1020.00 1020.48 1020.84 1021.09 1021.22
1004.98 1005.43 1005.90 1006.31 1006.59 1006.75 1006.84 1006.94 1007.13 1007.47 1008.00 1008.69 1009.50 1010.35 1011.18 1011.92 1012.52 1013.00 1013.38 1013.70 1013.99 1014.30 1014.64 1014.99 1015.35 1015.66 1015.91 1016.09 1016.19 1016.25 1016.31 1016.40 1016.58 1016.87 1017.26 1017.75 1018.30 1018.87 1019.42 1019.91 1020.31 1020.62 1020.84
1004.21 1004.64 1005.13 1005.54 1005.83 1005.98 1006.06 1006.12 1006.26 1006.56 1007.04 1007.70 1008.50 1009.37 1010.24 1011.06 1011.77 1012.37 1012.88 1013.32 1013.74 1014.17 1014.61 1015.06 1015.50 1015.89 1016.21 1016.43 1016.56 1016.62 1016.63 1016.65 1016.72 1016.87 1017.11 1017.46 1017.87 1018.34 1018.83 1019.29 1019.71 1020.07 1020.37
1003.74 1004.12 1004.55 1004.92 1005.15 1005.25 1005.27 1005.26 1005.33 1005.55 1005.97 1006.58 1007.35 1008.23 1009.13 1010.01 1010.82 1011.54 1012.17 1012.75 1013.30 1013.85 1014.41 1014.98 1015.52 1016.02 1016.43 1016.72 1016.91 1016.98 1016.99 1016.96 1016.94 1016.97 1017.08 1017.28 1017.57 1017.92 1018.32 1018.74 1019.16 1019.56 1019.92
1003.60 1003.90 1004.24 1004.50 1004.63 1004.64 1004.55 1004.46 1004.44 1004.58 1004.92 1005.47 1006.20 1007.07 1007.99 1008.91 1009.79 1010.59 1011.33 1012.02 1012.68 1013.35 1014.02 1014.70 1015.36 1015.96 1016.47 1016.87 1017.13 1017.27 1017.30 1017.27 1017.21 1017.17 1017.17 1017.26 1017.42 1017.67 1017.99 1018.36 1018.76 1019.18 1019.59
1003.79 1003.98 1004.19 1004.32 1004.33 1004.21 1004.02 1003.83 1003.72 1003.78 1004.05 1004.55 1005.23 1006.07 1006.98 1007.91 1008.82 1009.67 1010.47 1011.23 1011.97 1012.71 1013.46 1014.23 1014.97 1015.68 1016.30 1016.80 1017.17 1017.40 1017.51 1017.52 1017.47 1017.40 1017.36 1017.37 1017.46 1017.62 1017.87 1018.19 1018.57 1018.99 1019.42
1004.21 1004.30 1004.37 1004.36 1004.23 1003.99 1003.70 1003.43 1003.26 1003.27 1003.49 1003.93 1004.58 1005.37 1006.25 1007.17 1008.06 1008.91 1009.72 1010.49 1011.24 1012.01 1012.79 1013.60 1014.41 1015.18 1015.90 1016.51 1016.99 1017.34 1017.55 1017.65 1017.66 1017.63 1017.59 1017.58 1017.63 1017.74 1017.94 1018.22 1018.57 1018.97 1019.41
1004.76 1004.75 1004.70 1004.56 1004.31 1003.97 1003.61 1003.29 1003.09 1003.08 1003.28 1003.70 1004.31 1005.06 1005.90 1006.76 1007.60 1008.40 1009.16 1009.88 1010.60 1011.33 1012.10 1012.90 1013.72 1014.53 1015.31 1016.01 1016.60 1017.07 1017.40 1017.61 1017.73 1017.78 1017.79 1017.80 1017.85 1017.95 1018.12 1018.37 1018.68 1019.06 1019.47
1005.32 1005.24 1005.08 1004.84 1004.50 1004.11 1003.71 1003.39 1003.21 1003.21 1003.43 1003.84 1004.43 1005.14 1005.92 1006.70 1007.46 1008.17 1008.83 1009.47 1010.10 1010.75 1011.45 1012.20 1012.99 1013.81 1014.61 1015.36 1016.04 1016.61 1017.07 1017.41 1017.64 1017.79 1017.88 1017.95 1018.03 1018.14 1018.30 1018.53 1018.82 1019.16 1019.55
1005.81 1005.67 1005.43 1005.11 1004.73 1004.32 1003.94 1003.66 1003.53 1003.59 1003.84 1004.27 1004.85 1005.52 1006.23 1006.93 1007.59 1008.19 1008.74 1009.25 1009.77 1010.31 1010.91 1011.58 1012.31 1013.08 1013.87 1014.65 1015.38 1016.03 1016.58 1017.03 1017.37 1017.63 1017.81 1017.96 1018.09 1018.23 1018.40 1018.61 1018.88 1019.19 1019.53
1006.16 1005.97 1005.68 1005.32 1004.92 1004.53 1004.21 1004.00 1003.95 1004.08 1004.39 1004.85 1005.42 1006.06 1006.70 1007.32 1007.87 1008.36 1008.79 1009.19 1009.59 1010.02 1010.51 1011.08 1011.73 1012.44 1013.18 1013.94 1014.68 1015.37 1015.98 1016.50 1016.94 1017.28 1017.56 1017.78 1017.96 1018.14 1018.33 1018.55 1018.80 1019.08 1019.39
1006.34 1006.11 1005.79 1005.42 1005.04 1004.70 1004.45 1004.32 1004.37 1004.58 1004.94 1005.43 1005.99 1006.59 1007.17 1007.70 1008.16 1008.56 1008.89 1009.20 1009.51 1009.85 1010.25 1010.72 1011.28 1011.91 1012.59 1013.30 1014.01 1014.69 1015.32 1015.88 1016.37 1016.78 1017.12 1017.41 1017.65 1017.87 1018.09 1018.31 1018.56 1018.82 1019.11
1006.35 1006.09 1005.76 1005.41 1005.07 1004.79 1004.62 1004.59 1004.71 1004.98 1005.38 1005.87 1006.41 1006.96 1007.48 1007.94 1008.34 1008.66 1008.94 1009.19 1009.44 1009.73 1010.07 1010.47 1010.96 1011.51 1012.11 1012.75 1013.40 1014.04 1014.65 1015.21 1015.72 1016.16 1016.55 1016.88 1017.18 1017.44 1017.69 1017.94 1018.19 1018.45 1018.71
1006.22 1005.95 1005.64 1005.31 1005.02 1004.82 1004.72 1004.76 1004.93 1005.23 1005.63 1006.10 1006.60 1007.09 1007.54 1007.95 1008.30 1008.59 1008.85 1009.08 1009.33 1009.60 1009.92 1010.29 1010.72 1011.20 1011.73 1012.29 1012.87 1013.44 1014.00 1014.54 1015.04 1015.50 1015.91 1016.28 1016.62 1016.92 1017.21 1017.48 1017.74 1018.00 1018.26
1006.00 1005.74 1005.45 1005.18 1004.95 1004.81 1004.77 1004.85 1005.04 1005.34 1005.70 1006.11 1006.54 1006.96 1007.35 1007.70 1008.02 1008.30 1008.57 1008.83 1009.11 1009.41 1009.74 1010.10 1010.51 1010.95 1011.41 1011.90 1012.40 1012.90 1013.41 1013.90 1014.38 1014.84 1015.27 1015.67 1016.04 1016.38 1016.70 1017.00 1017.28 1017.54 1017.79
1005.72 1005.49 1005.25 1005.04 1004.87 1004.79 1004.79 1004.89 1005.07 1005.32 1005.62 1005.95 1006.28 1006.61 1006.93 1007.24 1007.53 1007.82 1008.12 1008.43 1008.76 1009.11 1009.47 1009.86 1010.26 1010.67 1011.09 1011.53 1011.96 1012.41 1012.86 1013.32 1013.77 1014.22 1014.66 1015.09 1015.49 1015.87 1016.22 1016.54 1016.83 1017.09 1017.32
1005.41 1005.23 1005.05 1004.90 1004.81 1004.77 1004.80 1004.90 1005.05 1005.23 1005.44 1005.67 1005.90 1006.13 1006.37 1006.63 1006.90 1007.20 1007.53 1007.89 1008.28 1008.68 1009.09 1009.51 1009.92 1010.33 1010.73 1011.13 1011.52 1011.93 1012.35 1012.78 1013.22 1013.67 1014.13 1014.57 1015.00 1015.40 1015.77 1016.10 1016.39 1016.64 1016.86
1005.06 1004.94 1004.83 1004.76 1004.73 1004.74 1004.79 1004.87 1004.97 1005.08 1005.20 1005.32 1005.45 1005.59 1005.76 1005.96 1006.21 1006.51 1006.86 1007.26 1007.68 1008.13 1008.59 1009.03 1009.46 1009.88 1010.27 1010.66 1011.05 1011.44 1011.85 1012.28 1012.73 1013.19 1013.65 1014.11 1014.55 1014.96 1015.34 1015.66 1015.94 1016.17 1016.35
1004.65 1004.59 1004.56 1004.56 1004.58 1004.63 1004.70 1004.77 1004.84 1004.89 1004.93 1004.96 1005.00 1005.06 1005.16 1005.31 1005.53 1005.82 1006.16 1006.57 1007.02 1007.48 1007.96 1008.42 1008.87 1009.30 1009.71 1010.11 1010.51 1010.92 1011.35 1011.80 1012.26 1012.74 1013.22 1013.69 1014.13 1014.53 1014.89 1015.19 1015.44 1015.63 1015.78
1004.16 1004.15 1004.18 1004.23 1004.31 1004.40 1004.49 1004.56 1004.61 1004.63 1004.62 1004.59 1004.57 1004.58 1004.62 1004.73 1004.91 1005.16 1005.49 1005.87 1006.31 1006.76 1007.23 1007.70 1008.16 1008.60 1009.04 1009.48 1009.91 1010.37 1010.84 1011.33 1011.83 1012.32 1012.81 1013.27 1013.70 1014.07 1014.39 1014.65 1014.85 1015.00 1015.10
1003.53 1003.55 1003.62 1003.72 1003.84 1003.97 1004.08 1004.18 1004.23 1004.25 1004.23 1004.19 1004.15 1004.13 1004.15 1004.22 1004.36 1004.58 1004.86 1005.20 1005.59 1006.01 1006.46 1006.91 1007.37 1007.84 1008.31 1008.79 1009.29 1009.80 1010.33 1010.86 1011.40 1011.91 1012.40 1012.85 1013.23 1013.56 1013.82 1014.02 1014.16 1014.26 1014.32
Thickness
5806 5805 5804 5802 5798 5795 5791 5788 5785 5783 5781 5776 5773 5770 5768 5768 5767 5766 5766 5765 5764 5763 5762 5761 5759 5758 5756 5755 5754 5753 5750 5748 5748 5745 5742 5743 5744 5744 5744 5744 5743 5742 5741
5802 5803 5803 5801 5798 5795 5792 5789 5786 5784 5782 5779 5776 5773 5771 5768 5768 5766 5766 5765 5764 5763 5762 5760 5758 5757 5755 5754 5753 5751 5748 5747 5746 5743 5738 5734 5735 5739 5742 5741 5741 5740 5739
5803 5802 5801 5800 5799 5796 5794 5792 5789 5786 5783 5781 5777 5774 5770 5767 5765 5764 5764 5764 5763 5762 5761 5760 5758 5756 5754 5752 5751 5750 5748 5745 5744 5744 5739 5732 5729 5731 5736 5737 5738 5737 5737
5809 5805 5802 5800 5800 5799 5797 5794 5790 5787 5784 5781 5778 5773 5769 5765 5764 5764 5764 5763 5762 5761 5760 5758 5757 5755 5753 5751 5750 5750 5748 5745 5742 5741 5740 5738 5736 5729 5727 5731 5734 5734 5734
5812 5808 5806 5804 5803 5801 5798 5795 5790 5787 5784 5782 5779 5775 5771 5768 5766 5764 5763 5762 5761 5759 5758 5756 5755 5753 5751 5750 5749 5747 5746 5744 5741 5739 5737 5735 5733 5731 5727 5724 5727 5729 5731
5814 5811 5809 5805 5802 5801 5799 5795 5790 5786 5784 5781 5778 5775 5771 5768 5764 5762 5760 5759 5758 5757 5756 5754 5753 5751 5749 5748 5747 5745 5744 5742 5740 5738 5736 5733 5730 5727 5725 5722 5721 5722 5726
5813 5810 5807 5804 5802 5799 5797 5794 5789 5785 5783 5780 5777 5775 5772 5769 5765 5763 5760 5757 5756 5755 5754 5753 5751 5749 5747 5746 5744 5743 5741 5739 5737 5735 5734 5732 5730 5728 5725 5722 5719 5718 5720
5813 5811 5809 5806 5804 5801 5798 5794 5790 5786 5783 5779 5776 5774 5771 5769 5766 5764 5761 5758 5756 5755 5753 5751 5749 5747 5745 5743 5741 5739 5738 5737 5735 5734 5731 5729 5728 5726 5724 5721 5717 5713 5713
5814 5812 5810 5807 5805 5802 5799 5795 5790 5787 5784 5781 5777 5773 5771 5768 5766 5763 5761 5758 5756 5754 5752 5749 5747 5745 5742 5740 5738 5736 5735 5733 5732 5730 5728 5727 5725 5724 5722 5720 5718 5713 5708
5811 5810 5809 5808 5806 5804 5801 5796 5791 5788 5785 5781 5777 5774 5770 5768 5765 5762 5758 5756 5754 5752 5749 5747 5744 5742 5740 5738 5736 5734 5732 5730 5728 5727 5725 5724 5722 5721 5719 5717 5715 5713 5709
5808 5808 5807 5807 5805 5802 5798 5794 5790 5786 5782 5778 5774 5772 5769 5766 5763 5760 5757 5754 5752 5749 5746 5744 5741 5738 5736 5735 5733 5731 5729 5726 5725 5723 5722 5720 5719 5717 5716 5714 5712 5710 5707
5806 5805 5805 5803 5801 5798 5795 5792 5789 5785 5781 5777 5773 5770 5767 5764 5761 5757 5755 5753 5750 5747 5744 5741 5738 5735 5733 5732 5730 5727 5725 5723 5722 5720 5719 5717 5716 5714 5712 5710 5708 5707 5705
5802 5800 5799 5798 5797 5795 5793 5791 5789 5784 5780 5775 5771 5767 5764 5762 5759 5756 5753 5751 5747 5744 5741 5738 5736 5733 5731 5729 5727 5724 5722 5720 5719 5717 5716 5714 5712 5710 5708 5706 5704 5703 5702
5797 5796 5795 5794 5794 5792 5789 5787 5785 5783 5779 5774 5769 5765 5762 5759 5757 5755 5752 5749 5745 5741 5739 5737 5735 5732 5729 5727 5725 5722 5720 5717 5716 5714 5713 5711 5709 5707 5705 5703 5700 5699 5696
5790 5790 5790 5790 5789 5786 5784 5783 5781 5779 5775 5771 5766 5763 5760 5757 5754 5752 5749 5746 5743 5740 5737 5735 5732 5730 5728 5725 5722 5720 5717 5714 5712 5711 5710 5708 5706 5705 5702 5700 5697 5694 5691
5786 5786 5786 5786 5784 5782 5781 5780 5778 5776 5772 5768 5763 5761 5758 5755 5751 5748 5745 5742 5740 5737 5734 5731 5728 5726 5725 5723 5720 5717 5714 5712 5709 5706 5705 5704 5703 5700 5697 5695 5693 5691 5688
5783 5782 5783 5783 5782 5780 5779 5777 5775 5772 5768 5764 5761 5758 5756 5752 5748 5745 5742 5739 5736 5733 5730 5727 5724 5722 5720 5719 5717 5714 5711 5708 5705 5703 5701 5700 5699 5695 5693 5691 5689 5688 5685
5778 5778 5778 5778 5778 5778 5775 5773 5770 5765 5762 5759 5756 5754 5752 5748 5745 5742 5738 5735 5733 5729 5726 5723 5721 5719 5717 5715 5713 5710 5708 5705 5702 5700 5697 5694 5692 5691 5688 5686 5684 5682 5681
5775 5775 5775 5775 5774 5773 5770 5766 5762 5759 5756 5754 5752 5751 5748 5745 5741 5738 5735 5732 5729 5726 5723 5720 5718 5715 5713 5711 5709 5706 5703 5701 5698 5695 5693 5690 5688 5686 5683 5681 5678 5677 5675
5770 5769 5769 5769 5768 5766 5764 5760 5757 5755 5753 5751 5748 5746 5744 5741 5738 5735 5732 5728 5725 5722 5719 5716 5715 5712 5710 5708 5705 5702 5699 5695 5693 5690 5688 5686 5684 5682 5679 5676 5674 5671 5670
5762 5762 5762 5761 5761 5760 5757 5754 5751 5750 5751 5748 5745 5742 5739 5737 5734 5730 5727 5723 5720 5717 5714 5712 5710 5708 5706 5704 5701 5698 5695 5692 5688 5686 5684 5682 5680 5678 5675 5672 5670 5668 5665
5753 5754 5753 5752 5753 5753 5750 5747 5745 5747 5745 5742 5738 5736 5733 5731 5729 5724 5720 5717 5714 5710 5708 5705 5703 5702 5701 5699 5697 5694 5692 5689 5685 5683 5680 5679 5676 5674 5670 5667 5665 5662 5659
5744 5745 5744 5743 5743 5744 5743 5740 5740 5741 5739 5736 5733 5730 5728 5725 5723 5718 5714 5711 5708 5705 5702 5699 5697 5696 5695 5693 5691 5689 5686 5684 5681 5679 5676 5674 5671 5667 5665 5662 5659 5657 5654
5734 5735 5734 5734 5733 5734 5735 5734 5734 5734 5732 5730 5728 5724 5721 5719 5716 5712 5709 5705 5702 5700 5697 5694 5692 5691 5689 5688 5686 5684 5681 5678 5675 5673 5671 5668 5664 5662 5659 5657 5654 5651 5649
5723 5725 5724 5723 5723 5724 5725 5727 5727 5725 5723 5722 5720 5718 5716 5713 5709 5707 5704 5702 5700 5698 5695 5693 5690 5686 5685 5685 5682 5679 5676 5673 5670 5666 5664 5661 5658 5656 5653 5650 5647 5645 5643
5712 5712 5713 5713 5714 5715 5716 5717 5717 5717 5716 5714 5712 5710 5708 5706 5703 5701 5698 5697 5695 5693 5691 5689 5687 5684 5682 5679 5677 5673 5670 5666 5664 5660 5658 5655 5652 5649 5647 5644 5642 5640 5638